Location: Shenandoah County Park
(38.9356°N, 78.4524°W)
Time: 23:00:27
(UTC-04:00)

Transit 4A - Pass Details

Date: 15 June 2023
Orbit: 862 x 981 km, 66.8° (Epoch: 02 October)

Event Time Altitude Azimuth Distance (km) Brightness Sun altitude
Rises 22:37:16 0° 323° (NW) 3,672 12.8 -17.7°
Reaches altitude 10° 22:40:00 10° 316° (NW) 2,729 11.6 -18.0°
Maximum altitude 22:45:48 38° 251° (WSW) 1,461 9.0 -18.7°
Enters shadow 22:50:02 18° 193° (SSW) 2,223 9.5 -19.2°
